Location: Ferchesar
(52.6477°N, 12.4298°E)
Time: 14:22:12
(UTC+01:00)

deb Explorer IX - Pass Details

Date: 12 December 2021
Orbit: 544 x 1082 km, 38.8° (Epoch: 18 January)

Event Time Altitude Azimuth Distance (km) Brightness Sun altitude
Rises 09:33:48 0° 245° (WSW) 3,355 ? 7.5°
Reaches altitude 10° 09:37:18 10° 226° (SW) 2,301 ? 7.8°
Maximum altitude 09:40:36 17° 188° (S) 1,777 ? 8.1°
Drops below altitude 10° 09:43:38 10° 149° (SSE) 2,085 ? 8.3°
Sets 09:46:35 0° 128° (SE) 2,903 ? 8.6°
